Location: Ch?enovice
(49.7164°N, 15.2160°E)
Time: 16:18:08
(UTC+00:00)

CZ-2C R/B - Pass Details

Date: 23 May 2024
Orbit: 703 x 904 km, 98.2° (Epoch: 12 June)

Event Time Altitude Azimuth Distance (km) Brightness Sun altitude
Rises 01:34:39 0° 12° (NNE) 3,537 7.7 -11.3°
Reaches altitude 10° 01:37:05 10° 12° (NNE) 2,597 6.8 -11.1°
Maximum altitude 01:42:54 78° 287° (WNW) 926 3.4 -10.5°
Enters shadow 01:48:27 11° 202° (SSW) 2,477 5.0 -9.9°
